Time,TemperatureF,DewpointF,PressureIn,WindDirection,WindDirectionDegrees,WindSpeedMPH,WindSpeedGustMPH,Humidity,HourlyPrecipIn,Conditions,Clouds,dailyrainin,SoftwareType,DateUTC
2015-01-29 00:02:00,49.1,43.5,30.24,SSE,150,5.0,6.0,81,0.00,,,0.00,VWS V12.08,2015-01-29 06:02:00,
2015-01-29 00:07:00,49.2,43.0,30.24,SE,140,3.0,6.0,79,0.00,,,0.00,VWS V12.08,2015-01-29 06:07:00,
2015-01-29 00:12:00,49.4,42.8,30.24,SSE,162,2.0,4.0,78,0.00,,,0.00,VWS V12.08,2015-01-29 06:12:00,
2015-01-29 00:17:00,49.2,42.3,30.24,SSE,154,3.0,8.0,77,0.00,,,0.00,VWS V12.08,2015-01-29 06:17:00,
2015-01-29 00:22:00,49.4,41.8,30.24,SSE,150,5.0,5.0,75,0.00,,,0.00,VWS V12.08,2015-01-29 06:22:00,
2015-01-29 00:27:00,49.1,41.5,30.24,SSE,148,2.0,6.0,75,0.00,,,0.00,VWS V12.08,2015-01-29 06:27:00,
2015-01-29 00:32:00,49.2,41.3,30.24,East,100,3.0,3.0,74,0.00,,,0.00,VWS V12.08,2015-01-29 06:32:00,
2015-01-29 00:37:00,48.9,41.3,30.24,ESE,106,2.0,3.0,75,0.00,,,0.00,VWS V12.08,2015-01-29 06:37:00,
2015-01-29 00:42:00,48.8,41.2,30.24,ESE,106,3.0,3.0,75,0.00,,,0.00,VWS V12.08,2015-01-29 06:42:00,
2015-01-29 00:47:00,48.7,41.1,30.24,ESE,107,2.0,4.0,75,0.00,,,0.00,VWS V12.08,2015-01-29 06:47:00,
2015-01-29 00:52:00,48.8,41.2,30.24,ESE,109,1.0,2.0,75,0.00,,,0.00,VWS V12.08,2015-01-29 06:52:00,
2015-01-29 00:57:00,48.5,41.3,30.24,ESE,112,2.0,5.0,76,0.00,,,0.00,VWS V12.08,2015-01-29 06:57:00,
2015-01-29 01:02:00,48.4,41.2,30.24,ESE,113,2.0,2.0,76,0.00,,,0.00,VWS V12.08,2015-01-29 07:02:00,
2015-01-29 01:07:00,48.4,41.2,30.24,ESE,113,2.0,3.0,76,0.00,,,0.00,VWS V12.08,2015-01-29 07:07:00,
2015-01-29 01:12:00,48.5,41.0,30.24,ESE,116,1.0,1.0,75,0.00,,,0.00,VWS V12.08,2015-01-29 07:12:00,
2015-01-29 01:17:00,48.5,41.0,30.25,ESE,116,0.0,1.0,75,0.00,,,0.00,VWS V12.08,2015-01-29 07:17:00,
2015-01-29 01:22:00,48.3,40.8,30.25,ESE,116,0.0,0.0,75,0.00,,,0.00,VWS V12.08,2015-01-29 07:22:00,
2015-01-29 01:27:00,48.2,40.7,30.25,ESE,116,0.0,0.0,75,0.00,,,0.00,VWS V12.08,2015-01-29 07:27:00,
2015-01-29 01:32:00,47.7,40.2,30.25,ESE,116,0.0,0.0,75,0.00,,,0.00,VWS V12.08,2015-01-29 07:32:00,
2015-01-29 01:37:00,47.6,40.1,30.25,ESE,116,0.0,0.0,75,0.00,,,0.00,VWS V12.08,2015-01-29 07:37:00,
2015-01-29 01:42:00,47.4,39.9,30.25,ESE,116,0.0,0.0,75,0.00,,,0.00,VWS V12.08,2015-01-29 07:42:00,
2015-01-29 01:47:00,47.3,39.8,30.25,ESE,116,0.0,0.0,75,0.00,,,0.00,VWS V12.08,2015-01-29 07:47:00,
2015-01-29 01:52:00,47.1,39.6,30.25,ESE,116,0.0,0.0,75,0.00,,,0.00,VWS V12.08,2015-01-29 07:52:00,
2015-01-29 01:57:00,47.0,39.5,30.25,ESE,116,0.0,0.0,75,0.00,,,0.00,VWS V12.08,2015-01-29 07:57:00,
2015-01-29 02:02:00,46.8,39.3,30.26,ESE,116,0.0,0.0,75,0.00,,,0.00,VWS V12.08,2015-01-29 08:02:00,
2015-01-29 02:07:00,46.7,39.5,30.26,ESE,116,0.0,2.0,76,0.00,,,0.00,VWS V12.08,2015-01-29 08:07:00,
2015-01-29 02:12:00,46.5,39.4,30.26,ESE,116,2.0,2.0,76,0.00,,,0.00,VWS V12.08,2015-01-29 08:12:00,
2015-01-29 02:17:00,46.1,39.3,30.25,ESE,114,1.0,2.0,77,0.00,,,0.00,VWS V12.08,2015-01-29 08:17:00,
2015-01-29 02:22:00,46.0,39.2,30.25,ESE,116,0.0,1.0,77,0.00,,,0.00,VWS V12.08,2015-01-29 08:22:00,
2015-01-29 02:27:00,46.0,39.5,30.25,ESE,114,2.0,5.0,78,0.00,,,0.00,VWS V12.08,2015-01-29 08:27:00,
2015-01-29 02:32:00,45.8,39.7,30.26,ESE,114,2.0,2.0,79,0.00,,,0.00,VWS V12.08,2015-01-29 08:32:00,
2015-01-29 02:37:00,45.8,39.7,30.26,ESE,114,2.0,3.0,79,0.00,,,0.00,VWS V12.08,2015-01-29 08:37:00,
2015-01-29 02:42:00,45.7,39.9,30.26,ESE,114,1.0,2.0,80,0.00,,,0.00,VWS V12.08,2015-01-29 08:42:00,
2015-01-29 02:47:00,45.7,40.2,30.26,ESE,114,1.0,2.0,81,0.00,,,0.00,VWS V12.08,2015-01-29 08:47:00,
2015-01-29 02:52:00,45.5,40.0,30.26,ESE,114,0.0,0.0,81,0.00,,,0.00,VWS V12.08,2015-01-29 08:52:00,
2015-01-29 02:57:00,45.4,40.2,30.26,ESE,114,0.0,0.0,82,0.00,,,0.00,VWS V12.08,2015-01-29 08:57:00,
2015-01-29 03:02:00,45.3,40.5,30.27,ESE,114,0.0,0.0,83,0.00,,,0.00,VWS V12.08,2015-01-29 09:02:00,
2015-01-29 03:07:00,45.3,40.5,30.27,ESE,114,0.0,0.0,83,0.00,,,0.00,VWS V12.08,2015-01-29 09:07:00,
2015-01-29 03:12:00,45.1,40.9,30.27,ESE,114,0.0,0.0,85,0.00,,,0.00,VWS V12.08,2015-01-29 09:12:00,
2015-01-29 03:17:00,45.1,40.9,30.27,ESE,114,0.0,0.0,85,0.00,,,0.00,VWS V12.08,2015-01-29 09:17:00,
2015-01-29 03:22:00,45.0,40.8,30.27,ESE,114,0.0,0.0,85,0.00,,,0.00,VWS V12.08,2015-01-29 09:22:00,
2015-01-29 03:27:00,44.8,40.9,30.27,ESE,114,0.0,0.0,86,0.00,,,0.00,VWS V12.08,2015-01-29 09:27:00,
2015-01-29 03:32:00,44.7,40.8,30.27,ESE,114,0.0,0.0,86,0.00,,,0.00,VWS V12.08,2015-01-29 09:32:00,
2015-01-29 03:37:00,44.7,40.8,30.27,ESE,114,0.0,0.0,86,0.00,,,0.00,VWS V12.08,2015-01-29 09:37:00,
2015-01-29 03:42:00,44.7,41.1,30.27,ESE,114,0.0,0.0,87,0.00,,,0.00,VWS V12.08,2015-01-29 09:42:00,
2015-01-29 03:47:00,44.5,40.9,30.27,ESE,114,0.0,0.0,87,0.00,,,0.00,VWS V12.08,2015-01-29 09:47:00,
2015-01-29 03:52:00,44.5,40.9,30.27,ESE,114,1.0,1.0,87,0.00,,,0.00,VWS V12.08,2015-01-29 09:52:00,
2015-01-29 03:57:00,44.5,41.2,30.27,ESE,114,1.0,2.0,88,0.00,,,0.00,VWS V12.08,2015-01-29 09:57:00,
2015-01-29 04:02:00,44.5,41.2,30.27,ESE,114,1.0,2.0,88,0.00,,,0.00,VWS V12.08,2015-01-29 10:02:00,
2015-01-29 04:07:00,44.5,41.2,30.27,ESE,114,2.0,2.0,88,0.00,,,0.00,VWS V12.08,2015-01-29 10:07:00,
2015-01-29 04:12:00,44.5,41.5,30.27,ESE,114,2.0,2.0,89,0.00,,,0.00,VWS V12.08,2015-01-29 10:12:00,
2015-01-29 04:17:00,44.5,41.5,30.27,ESE,114,1.0,3.0,89,0.00,,,0.00,VWS V12.08,2015-01-29 10:17:00,
2015-01-29 04:22:00,44.5,41.5,30.27,ESE,114,0.0,0.0,89,0.00,,,0.00,VWS V12.08,2015-01-29 10:22:00,
2015-01-29 04:27:00,44.6,41.8,30.27,East,100,1.0,3.0,90,0.00,,,0.00,VWS V12.08,2015-01-29 10:27:00,
2015-01-29 04:32:00,44.6,41.8,30.27,East,100,1.0,2.0,90,0.00,,,0.00,VWS V12.08,2015-01-29 10:32:00,
2015-01-29 04:37:00,44.6,41.8,30.27,East,100,0.0,3.0,90,0.00,,,0.00,VWS V12.08,2015-01-29 10:37:00,
2015-01-29 04:42:00,44.6,41.8,30.27,East,100,2.0,2.0,90,0.00,,,0.00,VWS V12.08,2015-01-29 10:42:00,
2015-01-29 04:47:00,44.6,41.8,30.28,East,100,1.0,6.0,90,0.00,,,0.00,VWS V12.08,2015-01-29 10:47:00,
2015-01-29 04:52:00,44.6,41.8,30.28,East,100,0.0,0.0,90,0.00,,,0.00,VWS V12.08,2015-01-29 10:52:00,
2015-01-29 04:57:00,44.5,41.8,30.28,ENE,71,2.0,7.0,90,0.00,,,0.00,VWS V12.08,2015-01-29 10:57:00,
2015-01-29 05:02:00,44.4,41.7,30.28,ENE,71,4.0,6.0,90,0.00,,,0.00,VWS V12.08,2015-01-29 11:02:00,
2015-01-29 05:07:00,44.6,41.8,30.28,East,80,2.0,6.0,90,0.00,,,0.00,VWS V12.08,2015-01-29 11:07:00,
2015-01-29 05:12:00,44.7,41.7,30.28,East,82,2.0,3.0,89,0.00,,,0.00,VWS V12.08,2015-01-29 11:12:00,
2015-01-29 05:17:00,44.8,41.8,30.28,East,93,3.0,3.0,89,0.00,,,0.00,VWS V12.08,2015-01-29 11:17:00,
2015-01-29 05:22:00,44.9,41.6,30.28,ESE,103,2.0,3.0,88,0.00,,,0.00,VWS V12.08,2015-01-29 11:22:00,
2015-01-29 05:27:00,44.9,41.6,30.28,ESE,103,1.0,5.0,88,0.00,,,0.00,VWS V12.08,2015-01-29 11:27:00,
2015-01-29 05:32:00,44.9,41.3,30.28,ESE,103,2.0,5.0,87,0.00,,,0.00,VWS V12.08,2015-01-29 11:32:00,
2015-01-29 05:37:00,45.0,41.1,30.28,ESE,103,2.0,5.0,86,0.00,,,0.00,VWS V12.08,2015-01-29 11:37:00,
2015-01-29 05:42:00,45.0,41.1,30.28,ESE,103,2.0,2.0,86,0.00,,,0.00,VWS V12.08,2015-01-29 11:42:00,
2015-01-29 05:47:00,45.2,41.3,30.28,ESE,103,0.0,3.0,86,0.00,,,0.00,VWS V12.08,2015-01-29 11:47:00,
2015-01-29 05:52:00,45.2,41.0,30.28,ESE,103,1.0,2.0,85,0.00,,,0.00,VWS V12.08,2015-01-29 11:52:00,
2015-01-29 05:57:00,45.3,41.1,30.28,ESE,103,1.0,5.0,85,0.00,,,0.00,VWS V12.08,2015-01-29 11:57:00,
2015-01-29 06:02:00,45.5,41.0,30.29,ESE,103,2.0,3.0,84,0.00,,,0.00,VWS V12.08,2015-01-29 12:02:00,
2015-01-29 06:07:00,45.6,40.7,30.29,ESE,104,1.0,3.0,83,0.00,,,0.00,VWS V12.08,2015-01-29 12:07:00,
2015-01-29 06:12:00,45.7,40.5,30.29,ESE,104,2.0,2.0,82,0.00,,,0.00,VWS V12.08,2015-01-29 12:12:00,
2015-01-29 06:17:00,45.8,40.6,30.29,SSE,147,1.0,5.0,82,0.00,,,0.00,VWS V12.08,2015-01-29 12:17:00,
2015-01-29 06:22:00,46.1,40.3,30.29,SSE,147,0.0,2.0,80,0.00,,,0.00,VWS V12.08,2015-01-29 12:22:00,
2015-01-29 06:27:00,46.1,40.3,30.29,SSE,147,0.0,5.0,80,0.00,,,0.00,VWS V12.08,2015-01-29 12:27:00,
2015-01-29 06:32:00,46.1,40.0,30.30,SSE,147,1.0,2.0,79,0.00,,,0.00,VWS V12.08,2015-01-29 12:32:00,
2015-01-29 06:37:00,45.9,39.8,30.30,SSE,147,0.0,2.0,79,0.00,,,0.00,VWS V12.08,2015-01-29 12:37:00,
2015-01-29 06:42:00,45.9,39.4,30.30,SSE,147,2.0,2.0,78,0.00,,,0.00,VWS V12.08,2015-01-29 12:42:00,
2015-01-29 06:47:00,45.9,39.4,30.31,SSE,147,0.0,3.0,78,0.00,,,0.00,VWS V12.08,2015-01-29 12:47:00,
2015-01-29 06:52:00,45.9,39.8,30.31,SSE,147,0.0,0.0,79,0.00,,,0.00,VWS V12.08,2015-01-29 12:52:00,
2015-01-29 06:57:00,45.8,39.7,30.31,SSE,147,0.0,1.0,79,0.00,,,0.00,VWS V12.08,2015-01-29 12:57:00,
2015-01-29 07:02:00,45.6,39.8,30.31,SSE,147,0.0,1.0,80,0.00,,,0.00,VWS V12.08,2015-01-29 13:02:00,
2015-01-29 07:07:00,45.8,40.3,30.31,SSE,147,2.0,3.0,81,0.00,,,0.00,VWS V12.08,2015-01-29 13:07:00,
2015-01-29 07:12:00,46.1,40.9,30.31,SSE,147,5.0,5.0,82,0.00,,,0.00,VWS V12.08,2015-01-29 13:12:00,
2015-01-29 07:17:00,46.5,41.3,30.31,SSE,147,3.0,5.0,82,0.00,,,0.00,VWS V12.08,2015-01-29 13:17:00,
2015-01-29 07:22:00,47.1,42.2,30.31,SSE,147,2.0,3.0,83,0.00,,,0.00,VWS V12.08,2015-01-29 13:22:00,
2015-01-29 07:27:00,47.2,42.3,30.31,SSE,147,3.0,5.0,83,0.00,,,0.00,VWS V12.08,2015-01-29 13:27:00,
2015-01-29 07:32:00,48.0,43.4,30.31,SSE,147,3.0,3.0,84,0.00,,,0.00,VWS V12.08,2015-01-29 13:32:00,
2015-01-29 07:37:00,48.3,43.4,30.31,SSE,147,2.0,3.0,83,0.00,,,0.00,VWS V12.08,2015-01-29 13:37:00,
2015-01-29 07:42:00,48.9,44.0,30.31,SSE,155,2.0,2.0,83,0.00,,,0.00,VWS V12.08,2015-01-29 13:42:00,
2015-01-29 07:47:00,48.9,44.0,30.31,SSE,155,4.0,5.0,83,0.00,,,0.00,VWS V12.08,2015-01-29 13:47:00,
2015-01-29 07:52:00,48.9,44.0,30.31,SSE,155,2.0,2.0,83,0.00,,,0.00,VWS V12.08,2015-01-29 13:52:00,
2015-01-29 07:57:00,50.0,45.0,30.31,SSE,155,3.0,5.0,83,0.00,,,0.00,VWS V12.08,2015-01-29 13:57:00,
2015-01-29 08:02:00,50.5,45.8,30.30,SSE,155,3.0,6.0,84,0.00,,,0.00,VWS V12.08,2015-01-29 14:02:00,
2015-01-29 08:07:00,50.9,46.9,30.30,SE,133,2.0,6.0,86,0.00,,,0.00,VWS V12.08,2015-01-29 14:07:00,
2015-01-29 08:12:00,51.7,47.7,30.30,SE,133,2.0,3.0,86,0.00,,,0.00,VWS V12.08,2015-01-29 14:12:00,
2015-01-29 08:17:00,52.2,48.5,30.30,SE,136,6.0,8.0,87,0.00,,,0.00,VWS V12.08,2015-01-29 14:17:00,
2015-01-29 08:22:00,52.4,49.0,30.30,SE,143,5.0,5.0,88,0.00,,,0.00,VWS V12.08,2015-01-29 14:22:00,
2015-01-29 08:27:00,52.7,49.0,30.30,SE,145,6.0,8.0,87,0.00,,,0.00,VWS V12.08,2015-01-29 14:27:00,
2015-01-29 08:32:00,52.8,49.3,30.30,SE,137,4.0,10.0,88,0.00,,,0.00,VWS V12.08,2015-01-29 14:32:00,
2015-01-29 08:37:00,52.8,49.7,30.30,SE,143,7.0,10.0,89,0.00,,,0.00,VWS V12.08,2015-01-29 14:37:00,
2015-01-29 08:42:00,52.9,50.0,30.30,SE,137,3.0,7.0,90,0.00,,,0.00,VWS V12.08,2015-01-29 14:42:00,
2015-01-29 08:47:00,53.2,50.3,30.30,SSE,148,6.0,7.0,90,0.00,,,0.00,VWS V12.08,2015-01-29 14:47:00,
2015-01-29 08:52:00,53.4,50.5,30.30,SE,133,5.0,6.0,90,0.00,,,0.00,VWS V12.08,2015-01-29 14:52:00,
2015-01-29 08:57:00,54.2,51.3,30.30,SE,140,4.0,10.0,90,0.00,,,0.00,VWS V12.08,2015-01-29 14:57:00,
2015-01-29 09:02:00,55.0,52.1,30.30,SSE,162,7.0,10.0,90,0.00,,,0.00,VWS V12.08,2015-01-29 15:02:00,
2015-01-29 09:07:00,55.6,52.7,30.30,SE,127,7.0,10.0,90,0.00,,,0.00,VWS V12.08,2015-01-29 15:07:00,
2015-01-29 09:12:00,56.0,53.1,30.30,SE,134,6.0,6.0,90,0.00,,,0.00,VWS V12.08,2015-01-29 15:12:00,
2015-01-29 09:17:00,56.5,53.6,30.30,SSE,152,5.0,7.0,90,0.00,,,0.00,VWS V12.08,2015-01-29 15:17:00,
2015-01-29 09:22:00,56.7,53.8,30.30,SSE,160,8.0,8.0,90,0.00,,,0.00,VWS V12.08,2015-01-29 15:22:00,
2015-01-29 09:27:00,57.3,54.4,30.30,SSE,165,5.0,8.0,90,0.00,,,0.00,VWS V12.08,2015-01-29 15:27:00,
2015-01-29 09:32:00,57.5,54.6,30.30,SSE,150,8.0,11.0,90,0.00,,,0.00,VWS V12.08,2015-01-29 15:32:00,
2015-01-29 09:37:00,57.6,54.7,30.30,SSE,148,7.0,14.0,90,0.00,,,0.00,VWS V12.08,2015-01-29 15:37:00,
2015-01-29 09:42:00,57.7,54.8,30.30,SE,141,5.0,10.0,90,0.00,,,0.00,VWS V12.08,2015-01-29 15:42:00,
2015-01-29 09:47:00,57.7,54.8,30.30,SE,134,10.0,12.0,90,0.00,,,0.00,VWS V12.08,2015-01-29 15:47:00,
2015-01-29 09:52:00,58.4,55.5,30.30,SSE,155,7.0,7.0,90,0.00,,,0.00,VWS V12.08,2015-01-29 15:52:00,
2015-01-29 09:57:00,58.8,55.9,30.30,SE,134,7.0,8.0,90,0.00,,,0.00,VWS V12.08,2015-01-29 15:57:00,
2015-01-29 10:02:00,58.8,55.9,30.30,SSE,168,5.0,6.0,90,0.00,,,0.00,VWS V12.08,2015-01-29 16:02:00,
2015-01-29 10:07:00,58.9,56.0,30.30,SE,141,5.0,10.0,90,0.00,,,0.00,VWS V12.08,2015-01-29 16:07:00,
2015-01-29 10:12:00,58.9,56.0,30.30,SSE,157,5.0,6.0,90,0.00,,,0.00,VWS V12.08,2015-01-29 16:12:00,
2015-01-29 10:17:00,59.3,56.4,30.30,ESE,117,7.0,10.0,90,0.00,,,0.00,VWS V12.08,2015-01-29 16:17:00,
2015-01-29 10:22:00,59.4,56.5,30.30,ESE,123,7.0,7.0,90,0.00,,,0.00,VWS V12.08,2015-01-29 16:22:00,
2015-01-29 10:27:00,59.8,56.6,30.30,SE,144,6.0,10.0,89,0.00,,,0.00,VWS V12.08,2015-01-29 16:27:00,
2015-01-29 10:32:00,59.6,56.4,30.31,SE,143,6.0,6.0,89,0.00,,,0.00,VWS V12.08,2015-01-29 16:32:00,
2015-01-29 10:37:00,59.6,56.4,30.31,SE,140,3.0,7.0,89,0.00,,,0.00,VWS V12.08,2015-01-29 16:37:00,
2015-01-29 10:42:00,59.2,56.3,30.31,SSE,158,3.0,4.0,90,0.00,,,0.00,VWS V12.08,2015-01-29 16:42:00,
2015-01-29 10:47:00,59.6,56.7,30.31,SSE,147,7.0,8.0,90,0.00,,,0.00,VWS V12.08,2015-01-29 16:47:00,
2015-01-29 10:52:00,59.8,56.9,30.31,ESE,123,6.0,11.0,90,0.00,,,0.00,VWS V12.08,2015-01-29 16:52:00,
2015-01-29 10:57:00,59.9,56.7,30.31,ESE,123,4.0,11.0,89,0.00,,,0.00,VWS V12.08,2015-01-29 16:57:00,
2015-01-29 11:02:00,59.8,56.9,30.30,ESE,112,6.0,7.0,90,0.00,,,0.00,VWS V12.08,2015-01-29 17:02:00,
2015-01-29 11:07:00,59.9,57.0,30.30,SE,133,7.0,8.0,90,0.00,,,0.00,VWS V12.08,2015-01-29 17:07:00,
2015-01-29 11:12:00,60.2,57.0,30.30,SSE,147,6.0,6.0,89,0.00,,,0.00,VWS V12.08,2015-01-29 17:12:00,
2015-01-29 11:17:00,60.3,57.0,30.28,SE,141,3.0,8.0,89,0.00,,,0.00,VWS V12.08,2015-01-29 17:17:00,
2015-01-29 11:22:00,60.7,57.4,30.28,SE,136,3.0,3.0,89,0.00,,,0.00,VWS V12.08,2015-01-29 17:22:00,
2015-01-29 11:27:00,60.7,57.4,30.28,SE,136,5.0,8.0,89,0.00,,,0.00,VWS V12.08,2015-01-29 17:27:00,
2015-01-29 11:32:00,60.6,57.3,30.28,SSE,151,8.0,8.0,89,0.00,,,0.00,VWS V12.08,2015-01-29 17:32:00,
2015-01-29 11:37:00,60.9,57.6,30.28,SE,137,8.0,10.0,89,0.00,,,0.00,VWS V12.08,2015-01-29 17:37:00,
2015-01-29 11:42:00,60.5,57.2,30.28,SE,130,7.0,9.0,89,0.00,,,0.00,VWS V12.08,2015-01-29 17:42:00,
2015-01-29 11:47:00,60.5,57.2,30.27,SE,131,6.0,9.0,89,0.00,,,0.00,VWS V12.08,2015-01-29 17:47:00,
2015-01-29 11:52:00,61.0,57.7,30.27,SE,140,3.0,5.0,89,0.00,,,0.00,VWS V12.08,2015-01-29 17:52:00,
2015-01-29 11:59:00,61.2,58.2,30.27,SE,133,2.0,8.0,90,0.00,,,0.00,VWS V12.08,2015-01-29 17:59:00,
2015-01-29 12:03:00,61.3,58.3,30.27,SE,137,4.0,10.0,90,0.00,,,0.00,VWS V12.08,2015-01-29 18:03:00,
2015-01-29 12:04:00,61.3,58.3,30.27,SE,137,2.0,10.0,90,0.00,,,0.00,VWS V12.08,2015-01-29 18:04:00,
2015-01-29 12:09:00,61.2,58.2,30.27,SSE,158,3.0,10.0,90,0.00,,,0.00,VWS V12.08,2015-01-29 18:09:00,
2015-01-29 12:14:00,61.2,58.2,30.27,SSE,147,6.0,6.0,90,0.00,,,0.00,VWS V12.08,2015-01-29 18:14:00,
2015-01-29 12:19:00,61.4,58.5,30.26,South,169,3.0,7.0,90,0.00,,,0.00,VWS V12.08,2015-01-29 18:19:00,
2015-01-29 12:24:00,61.8,58.8,30.26,SE,145,5.0,7.0,90,0.00,,,0.00,VWS V12.08,2015-01-29 18:24:00,
2015-01-29 12:29:00,62.1,59.1,30.26,SSE,148,3.0,8.0,90,0.00,,,0.00,VWS V12.08,2015-01-29 18:29:00,
2015-01-29 12:34:00,62.0,59.0,30.25,SSE,154,6.0,10.0,90,0.00,,,0.00,VWS V12.08,2015-01-29 18:34:00,
2015-01-29 12:39:00,60.7,57.8,30.25,SSE,154,2.0,10.0,90,0.00,,,0.00,VWS V12.08,2015-01-29 18:39:00,
2015-01-29 12:44:00,62.6,59.3,30.25,SE,144,5.0,8.0,89,0.00,,,0.00,VWS V12.08,2015-01-29 18:44:00,
2015-01-29 12:49:00,62.6,59.3,30.25,ESE,113,5.0,11.0,89,0.00,,,0.00,VWS V12.08,2015-01-29 18:49:00,
2015-01-29 12:54:00,62.4,59.1,30.25,SSE,150,6.0,7.0,89,0.00,,,0.00,VWS V12.08,2015-01-29 18:54:00,
2015-01-29 12:59:00,62.4,59.1,30.25,SE,140,2.0,7.0,89,0.00,,,0.00,VWS V12.08,2015-01-29 18:59:00,
2015-01-29 13:04:00,62.7,59.1,30.24,SE,144,6.0,10.0,88,0.00,,,0.00,VWS V12.08,2015-01-29 19:04:00,
2015-01-29 13:09:00,62.7,59.4,30.24,SE,138,5.0,10.0,89,0.00,,,0.00,VWS V12.08,2015-01-29 19:09:00,
2015-01-29 13:14:00,62.6,59.3,30.24,SSE,150,2.0,5.0,89,0.00,,,0.00,VWS V12.08,2015-01-29 19:14:00,
2015-01-29 13:19:00,63.3,59.4,30.24,South,179,3.0,7.0,87,0.00,,,0.00,VWS V12.08,2015-01-29 19:19:00,
2015-01-29 13:24:00,64.8,59.2,30.24,South,179,2.0,4.0,82,0.00,,,0.00,VWS V12.08,2015-01-29 19:24:00,
2015-01-29 13:29:00,65.6,58.9,30.24,South,191,5.0,6.0,79,0.00,,,0.00,VWS V12.08,2015-01-29 19:29:00,
2015-01-29 13:34:00,66.4,59.0,30.24,SSW,202,2.0,6.0,77,0.00,,,0.00,VWS V12.08,2015-01-29 19:34:00,
2015-01-29 13:39:00,66.2,58.4,30.24,SSE,167,7.0,8.0,76,0.00,,,0.00,VWS V12.08,2015-01-29 19:39:00,
2015-01-29 13:44:00,65.8,58.4,30.24,South,181,1.0,7.0,77,0.00,,,0.00,VWS V12.08,2015-01-29 19:44:00,
2015-01-29 13:49:00,66.0,59.3,30.24,WSW,237,3.0,7.0,79,0.00,,,0.00,VWS V12.08,2015-01-29 19:49:00,
2015-01-29 13:54:00,66.0,58.6,30.24,WSW,241,4.0,5.0,77,0.00,,,0.00,VWS V12.08,2015-01-29 19:54:00,
2015-01-29 13:59:00,65.3,58.3,30.24,SSW,198,3.0,6.0,78,0.00,,,0.00,VWS V12.08,2015-01-29 19:59:00,
2015-01-29 14:04:00,65.2,58.5,30.24,WSW,251,6.0,6.0,79,0.00,,,0.00,VWS V12.08,2015-01-29 20:04:00,
2015-01-29 14:09:00,65.5,58.8,30.24,SW,234,2.0,7.0,79,0.00,,,0.00,VWS V12.08,2015-01-29 20:09:00,
2015-01-29 14:14:00,65.5,58.8,30.24,SW,233,3.0,7.0,79,0.00,,,0.00,VWS V12.08,2015-01-29 20:14:00,
2015-01-29 14:19:00,65.5,58.1,30.24,WSW,248,6.0,7.0,77,0.00,,,0.00,VWS V12.08,2015-01-29 20:19:00,
2015-01-29 14:24:00,65.5,58.1,30.24,WSW,241,4.0,6.0,77,0.00,,,0.00,VWS V12.08,2015-01-29 20:24:00,
2015-01-29 14:29:00,65.5,58.1,30.24,WSW,250,5.0,6.0,77,0.00,,,0.00,VWS V12.08,2015-01-29 20:29:00,
2015-01-29 14:34:00,65.6,57.8,30.24,SW,223,6.0,7.0,76,0.00,,,0.00,VWS V12.08,2015-01-29 20:34:00,
2015-01-29 14:39:00,65.1,57.7,30.24,WSW,247,4.0,7.0,77,0.00,,,0.00,VWS V12.08,2015-01-29 20:39:00,
2015-01-29 14:44:00,64.6,58.0,30.24,SW,226,2.0,3.0,79,0.00,,,0.00,VWS V12.08,2015-01-29 20:44:00,
2015-01-29 14:49:00,65.2,58.5,30.23,SW,233,3.0,6.0,79,0.00,,,0.00,VWS V12.08,2015-01-29 20:49:00,
2015-01-29 14:54:00,65.5,58.5,30.23,South,181,1.0,6.0,78,0.00,,,0.00,VWS V12.08,2015-01-29 20:54:00,
2015-01-29 14:59:00,66.0,58.6,30.23,South,176,6.0,7.0,77,0.00,,,0.00,VWS V12.08,2015-01-29 20:59:00,
2015-01-29 15:04:00,65.8,58.4,30.23,South,175,3.0,6.0,77,0.00,,,0.00,VWS V12.08,2015-01-29 21:04:00,
2015-01-29 15:09:00,65.6,58.2,30.23,South,191,2.0,7.0,77,0.00,,,0.00,VWS V12.08,2015-01-29 21:09:00,
2015-01-29 15:14:00,65.7,58.7,30.23,South,171,3.0,8.0,78,0.00,,,0.00,VWS V12.08,2015-01-29 21:14:00,
2015-01-29 15:19:00,65.8,58.8,30.22,SSW,202,1.0,8.0,78,0.00,,,0.00,VWS V12.08,2015-01-29 21:19:00,
2015-01-29 15:24:00,65.9,58.5,30.22,South,176,4.0,8.0,77,0.00,,,0.00,VWS V12.08,2015-01-29 21:24:00,
2015-01-29 15:29:00,65.5,58.8,30.22,South,188,3.0,8.0,79,0.00,,,0.00,VWS V12.08,2015-01-29 21:29:00,
2015-01-29 15:34:00,65.5,58.8,30.22,South,179,4.0,7.0,79,0.00,,,0.00,VWS V12.08,2015-01-29 21:34:00,
2015-01-29 15:39:00,65.3,58.6,30.22,South,182,6.0,7.0,79,0.00,,,0.00,VWS V12.08,2015-01-29 21:39:00,
2015-01-29 15:44:00,65.2,58.5,30.22,South,188,5.0,10.0,79,0.00,,,0.00,VWS V12.08,2015-01-29 21:44:00,
2015-01-29 15:49:00,64.8,58.5,30.22,South,179,2.0,10.0,80,0.00,,,0.00,VWS V12.08,2015-01-29 21:49:00,
2015-01-29 15:54:00,64.9,58.9,30.22,South,179,3.0,4.0,81,0.00,,,0.00,VWS V12.08,2015-01-29 21:54:00,
2015-01-29 15:59:00,64.7,59.1,30.22,SSW,193,4.0,8.0,82,0.00,,,0.00,VWS V12.08,2015-01-29 21:59:00,
2015-01-29 16:04:00,64.7,59.1,30.21,South,172,5.0,7.0,82,0.00,,,0.00,VWS V12.08,2015-01-29 22:04:00,
2015-01-29 16:09:00,64.6,59.3,30.21,South,181,2.0,7.0,83,0.00,,,0.00,VWS V12.08,2015-01-29 22:09:00,